{"data":{"norad_id":27844,"intl_designator":"2003-031E","name":"CUTE-1 (CO-55)","alt_names":[],"object_type":"PAYLOAD","status":"ACTIVE","operator":null,"country":"JPN","launch_date":"2003-06-30","launch_site_code":"PLMSC","launch_vehicle":null,"mission":null,"orbit_class":"UNKNOWN","rcs_meters":0.069,"size_class":null,"mass_kg":null,"dimensions":null,"purposes":["comms","tech_demo"],"wikipedia_slug":null,"has_3d_model":false,"image_url":null,"decayed_at":null,"tle_current":{"epoch":"2026-05-24T23:53:49.036416Z","epoch_age_seconds":82375,"freshness":"FRESH","line1":"1 27844U 03031E   26144.99570644  .00000230  00000+0  11839-3 0  9992","line2":"2 27844  98.6739 153.8464 0008353 250.3425 109.6853 14.24319183188375","mean_motion":14.24319183,"eccentricity":0.0008353,"inclination_deg":98.6739,"raan_deg":153.8464,"arg_perigee_deg":250.3425,"mean_anomaly_deg":109.6853,"bstar":0.00011839,"rev_number":18837,"period_min":101.1009341998,"perigee_km":804.77768093823,"apogee_km":816.78748999772,"semimajor_km":7188.919585468,"source":"CELESTRAK","updated_at":"2026-05-25T13:38:25.484958Z"}}}